TimeEST,TemperatureF,Dew PointF,Humidity,Sea Level PressureIn,VisibilityMPH,Wind Direction,Wind SpeedMPH,Gust SpeedMPH,PrecipitationIn,Events,Conditions,WindDirDegrees,DateUTC
12:53 AM,-0.9,-4.0,87,30.34,10.0,Calm,Calm,-,N/A,,Clear,0,2013-02-11 05:53:00
1:53 AM,-6.0,-9.0,87,30.34,10.0,Calm,Calm,-,N/A,,Clear,0,2013-02-11 06:53:00
2:53 AM,-2.2,-5.8,85,30.29,10.0,Calm,Calm,-,N/A,,Clear,0,2013-02-11 07:53:00
3:53 AM,-4.0,-6.0,91,30.29,10.0,Calm,Calm,-,N/A,,Clear,0,2013-02-11 08:53:00
4:53 AM,-4.0,-8.0,83,30.28,9.0,Calm,Calm,-,N/A,,Partly Cloudy,0,2013-02-11 09:53:00
5:53 AM,-2.9,-8.0,79,30.25,10.0,Calm,Calm,-,N/A,,Scattered Clouds,0,2013-02-11 10:53:00
6:53 AM,-0.0,-4.0,83,30.25,8.0,Calm,Calm,-,N/A,,Mostly Cloudy,0,2013-02-11 11:53:00
7:53 AM,1.0,-0.9,91,30.24,8.0,Calm,Calm,-,N/A,,Mostly Cloudy,0,2013-02-11 12:53:00
8:53 AM,9.0,6.1,88,30.20,8.0,Calm,Calm,-,N/A,,Overcast,0,2013-02-11 13:53:00
9:53 AM,14.0,8.1,77,30.17,10.0,Calm,Calm,-,N/A,,Overcast,0,2013-02-11 14:53:00
10:53 AM,19.9,12.9,74,30.12,10.0,Calm,Calm,-,N/A,,Overcast,0,2013-02-11 15:53:00
11:53 AM,28.0,19.0,69,30.07,10.0,South,4.6,-,N/A,,Overcast,190,2013-02-11 16:53:00
12:53 PM,30.0,23.0,75,30.03,10.0,SSW,3.5,-,0.00,,Overcast,210,2013-02-11 17:53:00
1:14 PM,30.2,23.0,75,30.00,1.8,SW,3.5,-,0.00,Snow,Light Snow,230,2013-02-11 18:14:00
1:24 PM,28.4,24.8,86,29.99,0.5,SSW,4.6,-,0.01,Fog-Snow,Light Snow,210,2013-02-11 18:24:00
1:33 PM,28.4,26.6,93,29.98,0.5,South,3.5,-,0.02,Fog-Snow,Light Snow,180,2013-02-11 18:33:00
1:53 PM,28.9,28.0,96,29.98,0.5,SE,3.5,-,0.04,Snow,Light Snow,130,2013-02-11 18:53:00
2:07 PM,30.2,28.4,93,29.94,0.5,ESE,5.8,-,0.00,Fog-Snow,Light Snow,110,2013-02-11 19:07:00
2:29 PM,30.2,28.4,93,29.93,0.5,ESE,4.6,-,0.01,Snow,Light Snow,110,2013-02-11 19:29:00
2:53 PM,30.9,30.9,100,29.91,0.5,SE,8.1,-,0.03,Fog-Snow,Light Snow,130,2013-02-11 19:53:00
3:53 PM,32.0,30.9,96,29.85,0.5,SE,9.2,-,0.04,Fog-Snow,Snow,140,2013-02-11 20:53:00
4:53 PM,33.1,32.0,96,29.80,0.5,SSE,10.4,-,0.03,Snow,Light Snow,150,2013-02-11 21:53:00
5:45 PM,33.8,32.0,93,29.74,7.0,SSE,11.5,-,0.00,,Overcast,150,2013-02-11 22:45:00
5:53 PM,34.0,33.1,96,29.75,10.0,SSE,11.5,-,0.00,,Overcast,150,2013-02-11 22:53:00
6:10 PM,33.8,33.8,100,29.72,1.8,SSE,8.1,-,0.00,Rain,Light Rain,150,2013-02-11 23:10:00
6:53 PM,35.1,34.0,96,29.70,2.0,SSE,10.4,-,0.00,,Light Drizzle,150,2013-02-11 23:53:00
7:53 PM,35.1,35.1,100,29.65,1.2,SE,5.8,-,0.00,,Light Drizzle,140,2013-02-12 00:53:00
8:16 PM,35.6,35.6,100,29.63,1.2,SE,3.5,-,0.00,,Light Drizzle,140,2013-02-12 01:16:00
8:53 PM,33.1,33.1,100,29.63,0.5,Calm,Calm,-,0.00,Fog,Fog,0,2013-02-12 01:53:00
9:37 PM,32.0,32.0,100,29.59,0.1,Calm,Calm,-,N/A,Fog,Fog,0,2013-02-12 02:37:00
9:53 PM,32.0,32.0,100,29.60,0.1,Calm,Calm,-,N/A,Fog,Fog,0,2013-02-12 02:53:00
10:53 PM,33.1,33.1,100,29.58,0.1,Calm,Calm,-,N/A,Fog,Fog,0,2013-02-12 03:53:00
11:29 PM,33.8,33.8,100,29.56,0.2,Calm,Calm,-,N/A,Fog,Fog,0,2013-02-12 04:29:00
11:41 PM,33.8,33.8,100,29.56,0.5,WSW,4.6,-,N/A,Fog,Fog,240,2013-02-12 04:41:00
11:53 PM,33.1,33.1,100,29.57,0.5,Calm,Calm,-,N/A,Fog,Fog,0,2013-02-12 04:53:00